Location: Cheyres
(46.8153°N, 6.7877°E)
Time: 04:03:56
(UTC+00:00)

Cosmos 1378 - Pass Details

Date: 11 May 2021
Orbit: 490 x 499 km, 82.5° (Epoch: 18 June)

Event Time Altitude Azimuth Distance (km) Brightness Sun altitude
Exits shadow 23:34:52 49° 17° (NNE) 651 4.0 -25.0°
Drops below altitude 10° 23:37:39 10° 11° (N) 1,704 6.8 -25.0°
Sets 23:39:47 0° 10° (N) 2,593 8.1 -25.0°
